Simultaneous Nadir Overpasses (SNOs) Predictions

Prediction of SNOs between LANDSAT-8 and METOP-B Satellite Orbit:

Table of predicted SNOs for the next 14.0 days since TLE Epoch: 4/22/2023
Index Date (LANDSAT-8) Time (LANDSAT-8) Lat,Lon (LANDSAT-8) SZA (LANDSAT-8 ) Date (METOP-B) Time (METOP-B) Lat,Lon (METOP-B) SZA (METOP-B ) Distance(km) Time Diff (sec)
1 04/23/2023 14:06:29 -81.14,-172.11 109.33 04/23/2023 14:06:17 -81.14,-172.07 109.33 0.78 12
2 04/23/2023 14:55:54 81.17, -4.02 70.73 04/23/2023 14:56:56 81.16, -4.05 70.75 0.76 62
3 04/26/2023 09:40:45 -81.14,-105.67 110.24 04/26/2023 09:40:38 -81.14,-105.58 110.23 1.46 7
4 04/26/2023 10:30:10 81.17, 62.39 69.82 04/26/2023 10:31:17 81.16, 62.41 69.85 0.50 67
5 04/29/2023 04:26:17 79.80, 139.00 66.48 04/29/2023 04:25:04 80.16, 137.31 66.64 51.44 73
6 04/29/2023 05:15:00 -81.14, -39.23 111.11 04/29/2023 05:14:58 -81.14, -39.20 111.11 0.54 2
7 04/29/2023 06:04:25 81.17, 128.80 68.94 04/29/2023 06:05:37 81.16, 128.77 68.97 0.81 72
8 05/01/2023 23:59:50 81.11,-140.84 68.00 05/01/2023 23:58:40 81.11,-140.98 67.95 2.44 70
9 05/02/2023 00:49:16 -81.14, 27.19 111.96 05/02/2023 00:49:19 -81.14, 27.08 111.97 2.04 3
10 05/04/2023 19:34:06 81.11, -74.45 67.17 05/04/2023 19:33:00 81.11, -74.45 67.15 0.18 66



Historial Predications of SNOs between LANDSAT-8 and METOP-B
